◎P/2004 NL21の軌道と予報位置です



  那賀川の堀寿夫氏と前野拓氏から9月19日の観測が報告された.彼らのCCD

全光度は16.5等とのこと.なお,彗星は,1992年1月末に木星に0.35 AUまで

接近した.また,2015年9月には木星に0.31 AUまで接近する. 1998 QP54,

2002 S1,2003 O2の過去の軌道が良く似ていることを山本速報2401にも示し

たが,この彗星の軌道も,それらに似ている.何らかの関連があるのだろう.



    P/2004 NL21 (LINEAR)                                                  

Epoch 2004 Oct. 2.0 TT = JDT 2453280.5  

T 2004 Oct. 13.02121 TT                                 Nakano

q   2.0828299            (2000.0)            P               Q

n   0.12404775     Peri.   17.99261     +0.99085781     +0.06952101

a   3.9817757      Node   337.06193     -0.12729361     +0.76565766

e   0.4769093      Incl.   17.25700     +0.04468925     +0.63948039

P   7.95 (+/- 0.01 day)

From 73 observations 1996-2004, mean residual 0".63.

Residuals in seconds of arc 

1996/                     040808 704  0.9+  0.1+    040823 691  1.6+  0.2+  

960908 566  0.8-  0.0     040808 704  0.9+  0.1+    040906 E12  0.8-  0.6-  

960908 566  0.3+  0.0     040808 704  0.7+  0.1+    040906 E12  0.5-  0.6-  

960908 566  0.1+  0.2+    040808 704  0.2+  0.5+    040906 E12  0.9-  0.7-  

960915 566  0.0   0.2+    040808 704  1.6+  0.7+    040906 E12  1.1-  0.9-  

960915 566  0.3-  0.3+    040808 699  1.0-  0.2-    040909 699  1.2-  0.5-  

960915 566  0.1-  0.4+    040808 699  1.1-  0.1-    040909 699  1.1-  0.7-  

2004/                     040808 699  0.6-  0.4-    040909 699  0.4-  0.1+  

040715 704  0.1-  0.4-    040808 699  0.2-  0.3-    040909 699  0.4-  0.1-  

040715 704  0.7+  0.3-    040809 704 (0.7+  2.5-)   040913 704  1.3+  0.4+  

040715 704  0.1-  0.3-    040809 704  1.1-  0.9-    040913 704  1.1+  1.1+  

040715 704  0.3-  0.5+    040809 704  0.9-  0.1+    040913 704  0.3+  0.6+  

040716 704  0.3-  0.1-    040809 704  1.5+  0.4+    040913 704  1.1+  1.2+  

040716 704  0.5-  0.1-    040809 704  0.2-  0.3-    040913 704  0.4-  0.9+  

040716 704  0.8+  1.2+    040810 704  0.2+  0.1-    040915 699  0.5-  0.4-  

040722 699  0.8-  0.3-    040810 704  0.6+  0.0     040915 699  0.1-  0.4-  

040722 699  0.4-  0.4+    040810 704  0.2+  0.1+    040915 699  1.0-  0.7-  

040722 699  0.1-  0.5+    040810 704  0.6-  0.0     040915 699  0.6-  0.7-  

040722 699  0.3-  0.8-    040810 704  0.1-  0.2+    040918 E12  0.4-  0.3-  

040727 704  0.6+  0.5-    040812 704  0.1-  0.2+    040918 E12  0.4+  0.3+  

040727 704  0.2+  0.1-    040812 704  0.3-  0.2+    040918 E12  0.3+  0.6+  

040727 704  0.5-  0.3+    040812 704  0.5-  0.1+    040918 E12  0.1+  0.0   

040727 704  0.6+  0.3+    040812 704  0.3+  0.5+    040919 D74  0.9+  0.4-  

040728 704  0.3+  1.2-    040812 704  1.2-  0.1-    040919 D74  0.3+  0.3-  

040728 704  0.8+  0.1-    040823 691  1.4+  0.2+                            

040728 704  0.1+  0.6+    040823 691  1.6+  0.1+                            

 

Date/        TT  R.A.(2000) Decl.     Delta   r     Daily motion  Mag.  Moon Age

              h    h  m       。  ,                      ,  / PA 。  m1      。

2004 Sept.15 12  22 23.77  -05 48.1   1.115  2.095    15.0 / 304  15.9  151  .01

          16 12  22 22.94  -05 39.7   1.118  2.094    14.7 / 305  16.0  138  .04

          17 12  22 22.13  -05 31.2   1.121  2.093    14.4 / 306  16.0  124  .10

          18 12  22 21.35  -05 22.7   1.124  2.093    14.2 / 307  16.0  111  .17

          19 12  22 20.59  -05 14.3   1.127  2.092    13.9 / 308  16.0   97  .26

          20 12  22 19.85  -05 05.8   1.131  2.091    13.6 / 309  16.0   83  .37

          21 12  22 19.15  -04 57.3   1.135  2.090    13.2 / 310  16.0   69  .48

          22 12  22 18.46  -04 48.8   1.139  2.090    12.9 / 311  16.0   55  .60

          23 12  22 17.81  -04 40.4   1.143  2.089    12.6 / 312  16.0   41  .71

          24 12  22 17.19  -04 31.9   1.148  2.088    12.3 / 314  16.0   27  .80

          25 12  22 16.59  -04 23.4   1.153  2.088    12.0 / 315  16.0   15  .89

          26 12  22 16.03  -04 15.0   1.158  2.087    11.7 / 317  16.0   11  .95

          27 12  22 15.49  -04 06.5   1.163  2.087    11.3 / 318  16.0   20  .99

          28 12  22 14.99  -03 58.0   1.168  2.086    11.0 / 320  16.0   32 1.00

          29 12  22 14.52  -03 49.5   1.174  2.086    10.7 / 322  16.0   45  .99

          30 12  22 14.08  -03 41.1   1.179  2.085    10.4 / 324  16.1   57  .96

     Oct.  1 12  22 13.67  -03 32.6   1.185  2.085    10.2 / 326  16.1   70  .91

           2 12  22 13.29  -03 24.2   1.191  2.085     9.9 / 329  16.1   82  .84

           3 12  22 12.95  -03 15.7   1.198  2.084     9.6 / 331  16.1   94  .76

           4 12  22 12.64  -03 07.3   1.204  2.084     9.4 / 334  16.1  106  .68

           5 12  22 12.36  -02 58.8   1.211  2.084     9.2 / 337  16.1  117  .59

           6 12  22 12.12  -02 50.4   1.218  2.084     9.0 / 340  16.1  129  .49

           7 12  22 11.91  -02 41.9   1.225  2.083     8.8 / 343  16.1  140  .40

           8 12  22 11.74  -02 33.5   1.232  2.083     8.7 / 346  16.1  151  .31

           9 12  22 11.60  -02 25.0   1.239  2.083     8.6 / 349  16.2  161  .22

          10 12  22 11.49  -02 16.5   1.247  2.083     8.5 / 353  16.2  167  .14

          11 12  22 11.42  -02 08.1   1.254  2.083     8.5 / 356  16.2  163  .08

          12 12  22 11.38  -01 59.6   1.262  2.083     8.5 / 360  16.2  153  .03

          13 12  22 11.37  -01 51.1   1.270  2.083     8.5 /   3  16.2  140  .00

          14 12  22 11.40  -01 42.7   1.278  2.083     8.5 /   6  16.2  127  .00

          15 12  22 11.47  -01 34.2   1.286  2.083     8.6 /  10  16.2  114  .02

          16 12  22 11.57  -01 25.7   1.295  2.083     8.7 /  13  16.2  100  .07

          17 12  22 11.70  -01 17.2   1.303  2.083     8.9 /  16  16.3   86  .14

          18 12  22 11.86  -01 08.6   1.312  2.083     9.0 /  19  16.3   72  .23

          19 12  22 12.06  -01 00.1   1.321  2.084     9.2 /  22  16.3   59  .34

          20 12  22 12.29  -00 51.5   1.330  2.084     9.4 /  25  16.3   45  .45

          21 12  22 12.55  -00 42.9   1.339  2.084     9.7 /  27  16.3   32  .57

          22 12  22 12.85  -00 34.3   1.348  2.084     9.9 /  30  16.3   21  .68

          23 12  22 13.18  -00 25.7   1.357  2.085    10.2 /  32  16.4   14  .77

          24 12  22 13.53  -00 17.1   1.367  2.085    10.4 /  34  16.4   18  .86

          25 12  22 13.92  -00 08.4   1.376  2.085    10.7 /  36  16.4   28  .93

          26 12  22 14.34  +00 00.3   1.386  2.086    11.0 /  38  16.4   40  .97

          27 12  22 14.79  +00 09.0   1.395  2.086    11.3 /  39  16.4   52 1.00

          28 12  22 15.27  +00 17.7   1.405  2.087    11.6 /  41  16.4   64 1.00

          29 12  22 15.78  +00 26.5   1.415  2.087    11.9 /  43  16.4   76  .98

          30 12  22 16.32  +00 35.3   1.425  2.088    12.2 /  44  16.5   88  .94

          31 12  22 16.89  +00 44.1   1.435  2.088    12.6 /  45  16.5   99  .89

     Nov.  1 12  22 17.48  +00 52.9   1.446  2.089    12.9 /  46  16.5  111  .83

NAKANO

         **** Don't distribute anyone except personal use only ****

                (C) Copyright 2004 OAA/ComputingSection

write mail from CFAD0::NAKANO on 2004-09-21 02:12:40(JST).

 

戻ります。